Regional Weather Roundup
Issued by NWS

Home | Current Version | Previous Version | Graphics & Text | Print | Product List | Glossary On
Versions: 1 2 3 4 5 6 7 8 9 10 11 12 13 14 15 16 17 18 19 20 21 22 23 24 25 26 27 28 29 30 31 32 33 34 35 36 37 38 39 40 41 42 43 44 45 46 47 48 49 50
000
ASUS43 KLOT 250304
RWRIL

ILLINOIS REGIONAL WEATHER ROUNDUP
NATIONAL WEATHER SERVICE CHICAGO/ROMEOVILLE IL
1000 PM CDT SAT JUN 24 2017

NOTE: "FAIR" INDICATES FEW OR NO CLOUDS BELOW 12,000 FEET WITH NO
SIGNIFICANT WEATHER AND/OR OBSTRUCTIONS TO VISIBILITY.

* THESE STATIONS ARE NOT UNDER NWS QUALITY CONTROL. THEY ALSO MAY NOT
  REPORT WEATHER SUCH AS PRECIPITATION OR FOG.

ILZ001-002-007-009-015-016-024-250400-
NORTHWEST ILLINOIS

CITY           SKY/WX    TMP DP  RH WIND       PRES   REMARKS
MOLINE         MOCLDY    63  54  72 W5        30.07R
STERLING*      LGT RAIN  60  54  80 CALM      30.08R
SAVANNA*       MOCLDY    57  54  89 CALM      30.09R
$$

ILZ003-004-008-010-011-017-018-250400-
NORTH CENTRAL ILLINOIS

CITY           SKY/WX    TMP DP  RH WIND       PRES   REMARKS
ROCKFORD       PTCLDY    57  53  86 NW6       30.08R
FREEPORT*      CLOUDY    55  53  91 CALM      30.10R
ROCHELLE*      LGT RAIN  57  53  85 CALM      30.08R
DE KALB*       MOCLDY    59  50  71 CALM      30.08R
PERU*          CLEAR     62  46  55 SW8       30.06S
$$

ILZ005-006-012>014-019>023-250400-
NORTHEAST ILLINOIS

CITY           SKY/WX    TMP DP  RH WIND       PRES   REMARKS
CHICAGO-OHARE  MOCLDY    65  45  48 NW8       30.05R
CHICAGO-MIDWAY PTCLDY    66  45  46 NW12      30.06R
AURORA         PTCLDY    59  50  72 NW6       30.08R
LANSING*       PTCLDY    59  45  59 SW3       30.07R
JOLIET*        CLEAR     61  50  68 CALM      30.07R
WAUKEGAN       MOCLDY    58  50  75 VRB7      30.05R
DUPAGE AIRPORT MOCLDY    61  49  64 NW8       30.06R
WHEELING       CLOUDY    63  48  58 NW8       30.07R
MORRIS*        MOCLDY    63  47  57 SW5       30.06R
ROMEOVILLE*    PTCLDY    62  42  47 NW3       30.07R
NORTHERLY ISL    N/A     67  43  41 NW8         N/A
$$

LMZ740>746-250400-
SOUTHERN LAKE MICHIGAN

STATION/POSITION SKY/WX   TEMP    WIND        PRES    VSBY  WAVE
                          AIR SEA DIR/SP/G                  HT/PER
                          (F)     (DEG/KT/KT) (MB)    (MI)  (FT/S)
SOUTHERN BUOY              64 62  310/ 10/ 12 1015.9          1/ 4
WILMETTE HARBOR            64 65  300/ 16/ 25   N/A           2/ 3
HARRISON CRIB              67     320/ 17/ 19   N/A
BURNHAM HARBOR             67                   N/A
CALUMET HARBOR             69     280/  3/  6 1017.2R
BURNS HARBOR               68     290/  7/  9 1018.3R
MICHIGAN CITY              67     290/ 13/ 14   N/A
MICHIGAN CITY 6N           67 67  310/  8/ 12   N/A           3/ 4
ST. JOSEPH                 67 69  320/ 14/ 17 1017.6R         3/ 4
$$

ILZ025>027-034>036-040-047-049-050-058-095>099-250400-
WEST-CENTRAL ILLINOIS

CITY           SKY/WX    TMP DP  RH WIND       PRES   REMARKS
QUINCY         CLEAR     62  51  67 S6        30.13R
GALESBURG*     CLEAR     61  47  61 SW9       30.09R
MACOMB*        CLEAR     60  48  63 SW7       30.12R
JACKSONVILLE*  CLEAR     61  47  58 SW6       30.14R
PITTSFIELD*    CLEAR     64  49  57 SW5       30.16R
$$

ILZ028>032-037-038-041>044-048-051>054-059>061-250400-
CENTRAL ILLINOIS

CITY           SKY/WX    TMP DP  RH WIND       PRES   REMARKS
PONTIAC        CLEAR     61  54  78 S5        30.10R
BLOOMINGTON    CLEAR     60  46  59 SW6       30.12R
DECATUR        PTCLDY    62  46  55 SW3       30.13R
PEORIA         CLEAR     62  46  55 SW8       30.09R
LACON*         PTCLDY    61  48  63 S3        30.06S
LINCOLN*       CLEAR     61  48  62 CALM      30.12R
SPRINGFIELD    CLEAR     62  49  62 SW5       30.13R
TAYLORVILLE    PTCLDY    57  51  78 SW5       30.14R
$$

ILZ033-039-045-046-055>057-062-063-250400-
EAST-CENTRAL ILLINOIS

CITY           SKY/WX    TMP DP  RH WIND       PRES   REMARKS
CHAMPAIGN      CLEAR     58  48  69 SW6       30.13R
RANTOUL*       CLEAR     59  51  75 SW5       30.11S
MATTOON        CLEAR     62  49  62 W5        30.14R
PARIS*         CLEAR     57  55  90 CALM      30.14R
$$

ILZ079-100>102-250400-
SOUTHWEST ILLINOIS

CITY           SKY/WX    TMP DP  RH WIND       PRES   REMARKS
ALTON          CLEAR     63  52  67 CALM      30.17R
CAHOKIA*       CLEAR     65  43  44 CALM      30.17R
SPARTA*        CLEAR     68  47  47 CALM      30.19R
$$

ILZ064>066-069>071-074>076-080>082-084>086-088>090-092>094-250400-
SOUTH-CENTRAL ILLINOIS

CITY           SKY/WX    TMP DP  RH WIND       PRES   REMARKS
CARBONDALE     CLEAR     64  60  87 CALM      30.17R
CAIRO*         CLOUDY    65  62  92 CALM      30.17R
MARION         CLEAR     63  61  94 CALM      30.18R
MT. VERNON     MOCLDY    60  56  86 CALM      30.17R
CENTRALIA*     CLEAR     63  55  75 W3        30.16R
SALEM*         CLEAR     62  56  80 CALM      30.17R
METROPOLIS*    PTCLDY    63  61  92 CALM      30.17R
$$

ILZ067-068-072-073-078-083-087-091-250400-
SOUTHEAST ILLINOIS

CITY           SKY/WX    TMP DP  RH WIND       PRES   REMARKS
LAWRENCEVILLE  PTCLDY    66  57  72 W5        30.15R
FLORA*         CLEAR     67  51  56 W6        30.17R
FAIRFIELD*     MOCLDY    64  55  73 CALM      30.16R
HARRISBURG*    CLOUDY    67  54  63 CALM      30.17R
ROBINSON*      CLEAR     59  55  89 W6        30.15R
CARMI*         CLEAR     63  59  87 CALM      30.16R
$$

ABBREVIATIONS USED IN REMARKS
   TC - TEMPERATURE IN CELSIUS
  WCI - WIND CHILL INDEX
   HX - HEAT INDEX
  VSB - VISIBILITY
$$




USA.gov is the U.S. government's official web portal to all federal, state and local government web resources and services.